Theta_e
331 332 331 331 330 329 329 331 332 331 330 329 329 329 328 328 328 327 327 327 326 325 325 325 325 324 324 324 324 323 322 323 325 325 325 325 324 323 324 324 324 324 325 326 326 327 329 330 330 330 329 328 328 327 327 327 327 326 324 321 318 319 318 315 314 316 316 315 312 310 309 310 310 310 311 310 308 308 310 311 308 308 309 309 307
330 331 331 330 330 329 328 330 331 330 329 329 328 328 328 328 327 327 327 327 326 325 324 324 324 323 323 323 323 322 321 321 323 325 324 324 324 323 323 323 323 323 323 324 324 326 328 329 330 330 329 328 327 325 325 325 325 324 322 320 317 317 317 315 314 316 317 316 314 312 311 311 311 311 311 312 310 309 310 311 311 310 311 311 310
330 330 330 330 329 328 328 328 329 329 330 329 328 328 328 327 327 327 327 326 325 324 323 323 323 322 322 323 323 321 319 319 321 323 324 324 324 323 322 322 322 322 323 323 322 324 327 329 330 329 329 328 325 323 324 324 323 321 320 319 317 316 316 316 315 315 316 315 314 314 313 312 312 312 312 312 312 311 311 311 311 311 311 312 311
328 328 329 329 327 327 328 329 329 330 331 329 327 327 327 326 327 326 326 326 324 323 323 322 322 320 320 322 321 320 318 318 320 321 322 322 323 323 322 321 321 321 321 321 321 322 325 328 330 330 329 328 325 323 323 322 320 319 319 319 318 317 316 316 316 315 315 315 314 314 313 313 313 313 312 312 313 312 311 311 312 311 311 311 311
326 326 328 328 326 327 329 330 329 328 328 329 329 328 327 327 327 326 325 324 322 322 321 321 320 319 319 320 319 319 317 316 318 319 321 321 322 322 322 321 320 320 320 320 320 321 324 327 330 330 330 329 326 324 323 321 320 319 319 319 318 318 317 316 316 316 316 316 315 313 313 313 313 313 312 312 313 312 311 311 311 311 311 311 310
327 328 328 328 328 328 328 328 327 324 324 328 329 327 326 326 326 325 323 321 320 319 318 318 318 318 318 318 318 317 317 316 316 317 319 320 320 321 322 321 320 319 319 319 319 320 322 325 329 330 330 328 326 324 324 322 320 319 318 318 317 318 318 317 317 317 317 316 315 314 314 313 313 313 312 312 312 312 311 311 311 311 311 311 310
329 329 329 328 328 327 327 326 324 321 322 326 327 326 326 326 325 323 320 319 318 317 317 317 317 316 316 316 316 316 316 315 315 316 317 318 319 319 320 321 321 320 319 319 319 320 320 322 327 329 330 329 326 325 325 324 323 321 321 320 318 318 319 319 318 318 317 317 317 316 315 314 314 313 312 312 312 312 312 312 312 311 312 312 311
329 330 328 327 326 325 326 326 324 322 322 324 325 325 325 324 322 320 319 319 318 318 317 317 317 316 316 316 316 316 316 316 316 316 316 316 317 317 317 318 320 321 320 319 319 319 319 320 323 326 328 329 329 328 327 325 324 322 322 322 320 319 319 319 318 318 318 318 318 317 316 315 314 314 313 312 312 312 312 313 313 313 312 312 312
328 329 328 327 325 325 325 325 324 323 324 325 325 325 324 323 321 319 319 319 319 318 318 317 317 317 317 317 317 318 318 316 316 317 318 317 317 317 317 316 317 319 320 320 319 318 319 320 320 320 320 322 324 324 323 322 321 321 321 321 321 320 319 319 318 318 318 318 318 317 317 317 315 315 314 313 312 313 313 313 313 314 313 313 312
326 327 326 326 325 325 324 324 324 324 324 324 324 324 323 322 322 321 321 321 321 320 319 318 318 318 319 320 319 317 316 314 313 314 316 317 317 317 317 317 316 317 318 319 318 318 319 319 318 315 314 315 316 316 317 316 317 317 318 319 320 319 319 319 318 318 318 317 317 317 317 317 317 316 316 315 313 313 313 314 314 314 314 314 313
323 324 324 323 322 322 322 322 323 323 322 322 321 320 319 319 319 319 319 319 319 321 322 321 321 321 321 320 317 315 314 313 312 312 312 314 316 317 318 318 318 317 318 318 318 317 318 319 318 316 315 316 315 314 314 314 314 315 315 316 316 317 318 319 319 318 318 317 317 317 317 317 316 316 316 315 314 314 313 314 314 314 314 314 314
316 317 319 319 318 318 318 319 319 319 319 318 318 318 317 317 317 317 317 316 316 319 322 323 323 322 320 318 316 315 315 314 313 313 313 312 314 316 317 317 318 318 318 319 319 318 318 320 320 319 318 318 317 316 315 314 314 314 314 314 314 315 316 317 318 318 318 317 316 316 316 316 315 315 315 315 315 315 315 315 315 314 315 315 314
312 313 314 314 315 315 316 316 317 317 318 318 318 319 318 318 317 317 317 317 317 319 321 322 321 319 317 317 317 317 317 317 316 315 314 313 313 315 318 318 317 318 318 318 319 319 319 319 320 320 320 317 316 317 318 317 315 314 313 313 313 313 314 314 314 315 316 317 317 317 316 316 315 315 315 315 316 316 316 316 315 315 314 314 314
310 311 311 311 311 313 314 314 313 313 315 316 316 316 316 315 314 315 315 316 317 318 318 319 318 316 315 315 316 316 317 318 318 318 317 316 314 315 319 320 319 319 319 319 319 318 318 318 318 319 319 318 317 319 320 320 319 318 316 315 315 315 314 313 313 313 314 314 316 317 317 316 316 316 316 317 317 317 316 316 316 315 315 315 315
306 306 307 307 308 309 310 310 309 309 310 312 313 312 312 311 310 310 311 313 314 314 314 315 315 314 313 312 312 313 313 314 316 318 319 319 318 318 320 322 321 321 322 321 321 320 320 320 319 318 319 319 319 317 317 318 320 320 319 318 318 318 318 317 316 314 314 314 315 317 317 318 318 318 318 318 319 318 316 316 316 316 316 316 315
303 303 303 304 305 305 306 307 307 306 307 309 309 309 309 308 308 308 308 309 310 310 309 310 310 311 311 310 308 307 307 309 312 314 315 317 318 318 320 321 321 322 323 322 322 322 323 322 322 321 321 321 321 318 316 317 318 319 319 319 318 319 319 319 317 315 315 315 315 316 317 317 317 317 316 317 318 318 317 315 315 316 316 316 314
301 301 301 301 302 302 303 303 303 303 304 304 305 305 306 306 306 306 306 305 305 305 305 306 306 307 308 308 306 304 304 306 308 309 311 313 314 315 317 318 319 319 320 320 321 321 322 321 322 322 323 323 323 321 319 318 319 320 321 320 320 320 319 319 318 316 315 315 315 315 315 315 315 315 315 315 315 316 316 316 315 315 315 315 314
299 299 300 300 300 300 300 300 300 301 301 301 301 301 302 303 303 303 304 304 304 304 303 303 303 302 304 305 304 303 302 302 304 306 306 307 309 311 313 315 316 316 317 318 318 318 319 317 316 318 321 322 321 320 319 319 320 321 322 322 322 322 321 321 320 318 317 316 316 315 315 315 315 315 315 315 314 314 315 316 316 315 315 315 315
298 298 299 299 299 299 299 300 299 299 299 300 300 300 300 301 301 302 303 304 304 304 304 303 302 301 300 300 301 303 303 301 300 301 302 302 303 306 310 312 313 314 313 314 314 315 316 315 313 311 314 315 316 315 315 316 318 321 322 323 323 323 323 322 322 321 319 318 317 316 315 315 315 314 314 314 314 313 314 315 316 316 316 315 314
297 297 297 297 297 298 299 299 300 300 299 300 300 300 301 301 302 302 303 303 303 303 304 304 303 302 302 301 300 301 302 301 299 298 299 299 299 301 306 309 309 309 310 309 310 311 312 314 313 310 309 308 307 308 309 312 315 318 320 322 322 322 322 322 322 322 320 319 318 317 316 316 315 315 314 314 314 313 313 313 315 316 316 315 314
297 297 297 296 296 296 297 297 298 299 299 299 300 300 300 300 301 302 302 302 303 303 303 304 304 303 302 302 301 299 299 299 298 297 297 298 297 299 303 305 303 304 306 306 307 308 309 311 312 312 309 306 303 302 304 306 309 313 316 318 320 320 320 320 321 321 320 319 319 318 318 317 316 315 314 314 313 313 312 312 313 314 314 314 314
297 298 298 297 297 296 296 296 296 296 297 298 299 299 299 299 299 300 301 301 302 302 302 303 304 303 303 303 302 301 299 297 296 296 296 297 296 297 299 300 299 300 303 305 305 307 307 308 309 309 307 303 300 300 301 302 304 306 309 312 315 317 318 319 319 318 318 319 319 318 318 317 316 315 314 313 312 312 311 310 310 312 312 312 312
297 298 298 299 298 298 297 297 297 297 297 297 298 299 299 299 299 299 301 301 302 302 302 302 303 303 303 303 302 302 301 299 296 295 295 295 296 295 296 297 296 298 301 303 304 304 305 306 307 305 303 300 299 300 300 301 302 302 303 305 307 311 314 316 315 315 316 317 317 317 317 316 316 315 313 312 311 310 310 309 308 308 308 309 309
297 297 298 298 298 298 298 298 298 298 299 299 299 299 300 300 300 300 301 301 301 302 301 301 302 302 302 302 301 301 301 301 299 297 295 295 295 295 295 295 295 296 297 299 302 303 304 304 303 301 299 298 299 299 299 300 300 301 301 302 303 306 309 312 313 313 314 315 315 315 315 315 315 314 312 311 310 309 308 307 306 305 305 305 305
297 298 298 298 298 298 299 299 299 299 299 300 300 300 301 301 301 301 301 302 302 302 301 301 301 301 301 302 302 301 301 302 301 299 298 297 296 296 295 295 295 295 295 298 299 300 300 299 298 297 297 298 298 299 300 301 302 301 301 302 303 305 307 310 312 312 313 314 315 314 314 314 314 313 312 311 308 307 307 305 304 303 303 303 302
298 298 298 298 298 299 299 300 300 300 300 300 300 300 301 301 301 301 302 302 302 302 301 301 301 302 302 302 302 302 302 302 302 301 300 299 298 298 297 297 297 296 297 298 298 297 297 296 296 296 297 297 298 299 300 301 302 302 304 305 305 305 307 308 310 311 312 313 314 314 313 313 312 311 310 309 307 306 305 304 302 301 300 300 299
298 298 299 299 299 299 299 299 300 300 300 300 301 301 301 301 301 301 301 302 302 302 302 302 301 302 302 302 302 302 302 302 302 301 299 299 298 298 298 298 298 298 299 299 298 297 297 296 296 296 297 298 299 299 300 301 302 304 306 306 305 305 306 307 309 309 310 312 313 312 312 311 310 309 309 308 305 304 302 301 300 299 298 298 297
298 298 298 298 298 299 299 299 300 300 300 300 300 300 300 301 301 301 300 300 301 301 302 302 302 301 301 302 302 302 302 302 301 298 297 296 296 296 297 298 298 298 298 298 297 296 296 297 297 299 300 301 301 302 303 304 305 305 305 306 306 306 306 306 307 308 309 310 310 310 310 309 308 308 307 305 303 302 301 300 299 298 297 297 296
298 298 298 298 298 299 299 299 300 300 300 300 299 298 297 298 299 300 299 297 297 298 299 300 300 299 300 300 300 301 301 301 299 296 295 295 295 295 295 296 296 296 296 296 295 296 297 298 300 300 301 302 302 302 303 303 304 304 304 305 305 305 306 306 307 307 307 308 308 308 307 306 305 304 304 303 302 301 300 299 298 297 296 296 296
298 298 298 298 298 298 299 299 299 299 300 300 299 298 297 296 297 298 297 297 296 296 296 297 297 296 297 299 299 298 298 298 296 295 295 295 294 294 295 295 295 295 296 296 296 296 297 299 300 301 301 301 301 301 301 302 303 303 303 303 304 304 304 304 305 305 305 306 306 305 304 303 302 301 302 302 300 299 298 298 297 296 296 296 296
298 298 298 297 297 298 298 298 299 299 299 299 299 299 299 298 297 296 296 296 296 295 295 295 295 295 295 296 297 296 296 296 295 295 295 295 294 295 295 295 296 296 296 297 296 297 299 300 300 301 301 301 301 301 301 301 302 302 303 303 303 303 302 302 303 303 304 304 304 303 302 302 302 300 299 299 299 298 297 296 296 296 296 296 296
298 298 297 297 297 297 298 298 298 299 299 299 299 299 299 299 298 297 296 296 295 295 295 295 295 295 295 295 295 295 295 295 295 295 295 295 296 296 296 296 296 296 296 297 297 298 300 300 300 300 300 300 301 300 300 301 301 301 302 302 303 303 303 302 302 302 302 302 302 301 300 300 300 299 298 298 297 296 296 296 295 295 296 296 296
298 298 297 297 297 297 298 298 298 298 298 298 299 299 299 299 299 299 298 297 297 296 296 296 295 295 295 295 295 295 295 295 294 295 295 295 296 296 296 296 296 296 297 297 298 299 299 300 300 300 300 300 300 300 300 300 301 301 301 302 303 303 303 302 302 302 302 301 300 300 300 299 298 298 297 296 296 295 295 295 294 295 295 294 294
297 296 297 297 297 298 298 298 298 298 298 298 298 298 298 298 299 299 299 299 299 298 297 297 296 295 295 296 296 296 295 294 294 294 295 295 296 296 297 297 297 297 297 298 298 299 299 299 299 299 300 300 300 300 300 300 301 301 301 301 302 302 303 302 302 301 301 300 299 299 298 297 297 297 296 295 294 294 294 293 294 294 294 294 294
297 296 295 296 297 297 297 297 298 298 298 298 298 298 298 298 298 298 299 299 299 299 299 298 297 296 295 295 295 295 295 295 295 295 295 296 296 297 297 298 298 298 298 298 298 298 298 298 299 299 299 300 300 300 300 300 300 301 301 301 301 301 302 301 300 299 299 298 297 297 297 296 296 296 295 294 293 293 293 293 293 294 294 294 294
297 297 296 296 297 297 297 297 297 297 297 298 298 298 298 298 298 298 298 298 298 299 299 299 298 297 296 295 295 295 295 295 295 295 295 296 297 298 298 298 298 298 298 298 298 298 298 299 299 299 300 300 299 299 299 299 299 299 300 300 300 300 300 300 299 298 297 296 295 295 295 295 295 294 294 293 293 293 293 293 293 293 293 293 293
297 297 297 296 297 297 297 297 297 296 296 297 297 298 298 297 297 298 298 297 297 298 299 298 298 297 297 296 295 295 295 296 295 295 295 296 297 297 298 298 298 298 298 298 298 298 298 299 299 299 299 299 298 298 298 297 297 297 297 297 297 297 297 297 296 295 295 294 294 294 294 294 294 293 293 293 293 293 293 293 292 292 292 292 292
297 297 296 295 296 297 297 297 296 296 296 297 297 297 297 297 297 297 297 297 296 297 298 298 297 297 297 296 295 295 296 297 296 296 296 296 297 297 298 298 298 298 298 297 297 297 297 298 298 298 297 297 296 296 295 295 294 294 294 294 294 294 294 294 293 293 293 292 292 293 293 293 293 293 293 293 293 293 293 292 292 292 291 291 292
297 296 294 294 295 296 296 296 296 296 296 297 297 297 296 296 297 297 297 297 296 297 297 297 296 296 296 294 293 294 296 297 297 296 296 296 296 297 297 297 297 296 296 296 296 297 297 297 296 296 296 295 294 294 293 293 292 292 292 292 292 292 292 292 291 291 291 291 291 292 292 292 292 292 292 292 292 292 292 292 292 292 292 291 292
298 297 295 294 295 296 296 296 296 296 296 296 296 296 296 296 296 296 296 296 296 296 297 296 296 296 294 292 291 293 295 296 296 296 296 295 295 295 296 296 296 295 295 295 295 295 296 295 295 295 294 294 293 293 292 292 292 291 291 292 292 291 291 291 291 291 291 291 291 292 292 292 292 292 292 292 291 291 291 291 291 291 292 292 292
297 297 296 295 295 296 296 296 296 296 296 296 296 296 296 296 296 296 296 295 295 296 296 296 296 295 293 291 290 293 294 295 295 295 295 294 294 294 295 295 294 294 294 294 294 294 294 294 294 293 293 293 292 292 292 292 292 292 292 292 292 292 292 292 292 292 292 292 292 292 292 292 292 292 291 291 291 291 291 291 291 291 291 292 292
297 297 296 296 296 296 296 296 295 295 295 295 295 295 295 295 295 295 295 295 295 295 295 295 295 295 293 291 291 293 294 294 294 294 294 294 293 293 293 293 293 292 292 292 292 292 292 293 293 292 292 292 292 291 291 292 292 292 292 292 292 292 292 292 292 292 292 292 292 292 291 291 291 291 291 291 291 291 291 291 291 291 291 291 292
297 296 296 296 296 296 295 295 295 295 294 294 294 294 294 295 295 295 295 295 295 295 295 295 295 295 293 292 292 293 294 293 293 292 292 292 292 292 292 292 291 291 291 292 292 292 291 291 292 292 292 291 291 291 291 292 292 293 292 292 291 291 291 291 291 291 291 292 291 291 291 291 291 291 291 291 291 291 291 291 291 291 291 291 291
297 296 296 296 296 295 295 294 294 294 293 293 293 293 293 294 294 294 294 295 294 294 294 294 294 294 294 293 293 293 294 293 292 291 291 291 291 291 292 291 290 290 290 291 292 292 291 291 291 291 291 291 291 291 291 292 292 292 292 292 292 291 291 291 290 290 291 291 291 291 291 290 290 291 291 291 291 291 291 291 291 291 291 291 291
297 296 296 295 296 295 295 294 294 293 293 293 293 293 294 294 294 294 294 294 294 294 294 294 294 294 294 293 293 293 293 293 292 291 290 290 291 291 291 290 289 290 290 291 291 292 291 291 291 291 291 291 291 292 292 292 292 292 292 292 292 291 291 290 290 290 290 290 291 291 291 291 291 291 291 291 291 291 291 291 291 291 291 291 291
297 296 296 295 295 295 295 294 294 294 293 293 293 294 294 294 294 294 294 294 294 294 294 293 293 293 293 293 293 293 293 293 292 291 291 290 290 290 290 289 289 290 291 291 291 292 292 291 291 291 291 291 291 291 291 292 292 292 292 291 291 291 290 290 290 289 290 290 290 290 291 291 290 290 290 291 291 291 291 291 291 291 291 291 291
297 296 296 295 295 295 295 294 294 293 293 293 293 293 294 294 294 294 293 293 294 294 293 293 293 293 293 293 293 292 292 292 292 291 291 290 290 290 290 290 290 291 291 291 291 291 291 291 292 292 292 291 291 291 291 291 291 291 291 291 291 291 290 289 289 289 290 290 290 290 290 290 290 290 290 291 291 290 290 290 290 290 290 290 291
297 296 295 295 295 295 295 294 294 293 293 293 293 293 293 294 294 293 294 294 294 294 294 293 293 293 293 293 292 292 291 291 291 291 290 290 290 290 290 290 290 290 290 290 290 290 290 291 291 291 291 291 291 291 291 290 290 290 291 291 291 290 290 289 289 289 289 290 290 290 290 290 290 290 290 290 291 291 290 290 290 290 290 290 290
296 296 295 295 295 295 295 294 294 294 294 293 293 293 293 294 294 294 294 294 294 294 294 294 293 293 293 292 292 291 291 291 291 290 290 289 289 289 289 289 288 288 288 288 288 288 288 288 288 288 288 289 289 289 290 290 290 290 290 290 290 290 289 289 289 289 290 290 290 290 290 290 290 290 290 290 290 290 290 290 290 290 290 290 290
296 296 295 295 295 294 294 294 294 294 294 294 294 294 294 294 294 294 294 294 294 294 294 293 293 293 293 292 292 292 291 291 291 291 290 289 288 288 288 288 288 288 288 287 287 287 287 287 287 287 287 287 287 287 288 289 289 289 289 289 289 289 289 289 289 289 289 290 290 290 290 290 290 290 290 290 290 290 290 290 290 290 290 290 290
296 295 296 295 294 294 294 294 294 294 294 294 294 294 294 294 294 293 294 294 294 294 293 293 293 293 293 292 292 292 292 291 291 291 290 290 288 288 288 288 288 288 288 288 288 287 287 286 287 287 287 286 287 287 288 288 289 288 288 288 288 288 288 289 289 289 289 289 289 290 290 290 290 290 290 290 290 290 290 290 290 290 290 290 290
Wind_Speed
27 27 25 24 24 24 24 21 17 18 20 19 17 16 15 15 14 14 13 11 11 11 10 10 10 9 9 9 10 8 6 6 6 6 7 7 7 7 6 6 6 7 7 6 6 6 7 8 9 8 9 9 8 8 8 8 9 9 9 8 5 5 6 7 11 11 9 9 10 11 14 14 13 13 12 12 14 14 10 9 10 9 8 7 7
25 26 26 24 24 25 25 23 20 20 20 18 16 15 15 15 14 13 12 11 11 10 10 11 10 9 9 10 10 8 7 6 6 6 7 8 7 7 6 6 6 6 6 6 6 6 5 7 8 9 10 9 7 9 9 10 10 10 11 9 7 8 8 7 11 12 10 10 10 11 13 13 12 13 13 12 14 14 12 11 11 10 9 9 8
26 26 26 25 24 23 23 23 21 20 19 17 16 15 15 15 14 13 12 11 10 10 10 10 10 9 10 10 10 8 7 6 6 6 7 8 8 7 6 6 6 6 6 6 6 6 6 6 8 9 10 9 9 10 9 10 12 11 11 9 8 9 8 6 9 12 11 11 11 11 12 13 12 12 13 13 13 14 13 12 11 10 10 9 8
28 25 24 23 22 20 19 19 18 17 16 15 16 16 15 14 14 13 13 11 10 10 10 10 9 9 10 11 10 8 7 7 6 6 7 7 7 7 7 7 7 6 7 6 5 5 6 7 8 10 11 10 10 10 10 12 12 11 11 10 9 9 8 6 7 9 10 11 11 10 12 13 12 11 13 13 14 14 13 12 12 11 11 9 8
26 25 22 20 19 18 17 17 18 20 19 15 15 16 15 14 14 13 12 12 11 11 10 10 9 10 10 10 10 8 7 7 7 7 7 6 6 7 7 7 7 7 6 6 5 5 6 8 9 11 11 11 11 10 11 13 12 11 12 11 10 10 9 8 7 6 8 9 10 10 10 12 12 11 12 13 13 14 13 12 12 11 11 10 9
22 22 20 18 18 19 20 21 24 26 22 16 15 16 15 14 13 12 12 12 11 11 10 9 9 9 10 9 9 8 7 6 6 7 7 7 6 6 6 6 6 6 6 6 5 5 5 7 9 11 11 11 11 11 12 13 11 10 11 10 10 10 9 10 9 7 7 8 9 10 10 11 12 11 12 13 13 13 13 12 12 12 12 11 11
19 18 18 17 15 15 17 20 26 28 23 18 16 15 15 14 13 12 12 12 12 11 11 10 9 9 9 8 8 7 7 6 6 6 7 6 6 5 6 6 6 5 5 5 5 5 5 6 9 11 10 10 11 10 11 12 11 10 9 9 8 9 9 10 10 9 9 9 9 10 11 11 12 12 12 13 13 12 12 12 13 12 13 13 12
17 17 17 17 15 14 14 17 23 26 23 18 16 16 15 14 13 12 13 12 12 11 11 10 9 9 8 8 7 6 6 5 5 5 5 6 5 5 5 6 6 6 5 4 4 4 5 6 7 8 9 9 9 9 9 10 10 9 9 8 8 9 9 9 10 10 11 10 10 10 11 11 12 12 11 12 13 14 14 13 13 13 14 14 14
17 16 15 16 17 16 16 17 18 20 19 16 16 16 16 14 14 13 13 12 11 10 10 10 9 8 8 7 6 5 5 5 5 5 4 5 5 4 4 5 6 6 6 5 4 4 5 5 5 6 7 8 8 8 8 8 8 8 7 6 7 8 8 8 9 9 10 11 10 10 11 11 12 12 12 14 15 15 14 14 14 14 14 14 14
18 17 16 16 16 16 16 17 17 18 18 17 16 17 16 15 13 13 12 11 10 9 9 8 8 8 8 7 6 5 5 6 7 6 5 4 4 3 3 4 5 6 6 6 5 5 5 5 5 5 6 5 5 5 5 5 5 6 6 6 6 7 8 7 8 8 9 9 9 10 11 11 12 13 14 15 16 15 14 15 16 15 14 14 14
17 18 17 15 15 15 15 18 19 18 17 18 20 19 18 17 15 13 11 10 9 8 8 8 8 9 9 8 7 8 7 7 7 7 6 5 4 3 3 4 4 5 6 5 6 6 5 5 4 4 4 3 3 2 2 3 3 4 5 5 6 7 7 7 7 7 8 8 9 9 10 11 12 13 14 14 15 15 15 16 16 15 15 14 14
19 19 17 16 16 18 17 18 20 19 17 20 22 19 16 14 11 9 8 8 8 8 8 9 10 11 11 11 10 9 8 7 7 6 6 5 5 4 3 4 4 4 5 4 4 5 5 4 4 3 3 3 3 2 3 4 4 5 6 6 7 8 8 8 8 7 7 8 9 10 10 11 11 12 13 13 13 14 15 16 16 17 16 17 16
25 24 21 19 21 22 22 22 22 21 20 19 18 16 13 10 9 8 9 10 11 10 11 11 12 13 14 13 13 12 10 8 7 6 5 5 6 5 3 3 4 4 3 3 3 3 3 3 3 3 3 4 4 4 5 5 6 7 8 9 10 10 11 11 11 11 10 10 11 11 11 11 12 12 12 13 13 13 15 16 17 17 18 19 19
27 26 23 21 22 22 24 23 20 18 18 18 17 16 16 15 14 12 11 12 12 12 12 13 13 13 13 14 14 12 11 10 8 6 5 4 5 5 3 2 3 3 2 2 2 2 3 3 4 4 4 5 5 5 5 5 6 7 8 9 10 11 12 12 13 13 13 13 13 13 12 12 13 13 11 11 13 14 15 15 15 17 17 18 17
26 24 22 20 20 19 21 22 21 19 19 21 21 20 20 19 16 14 13 15 16 14 14 15 14 13 12 12 13 12 11 9 7 6 5 4 4 4 2 1 2 2 2 2 3 3 3 4 5 5 5 6 7 7 7 7 7 7 9 10 10 11 12 13 14 13 14 15 15 14 13 13 12 12 11 10 12 12 13 13 14 14 13 12 13
25 23 21 20 20 19 19 21 21 20 21 22 22 21 20 19 17 16 17 17 18 17 16 15 14 12 11 10 11 11 10 8 7 6 5 4 4 3 1 1 1 2 2 2 3 3 4 4 5 6 6 7 8 10 9 9 9 9 10 11 12 12 13 14 16 17 16 17 17 16 17 17 17 17 16 14 13 11 11 13 14 14 12 11 12
24 22 19 19 21 21 20 21 20 19 19 20 20 19 18 17 16 16 15 16 16 16 15 14 12 12 11 9 8 8 7 7 5 4 4 4 3 2 0 1 1 2 2 3 3 3 4 5 5 5 5 6 9 10 10 11 10 10 12 13 13 14 15 16 19 21 20 20 21 21 22 22 22 22 22 21 19 15 13 14 15 15 15 14 15
20 20 18 18 20 21 21 22 22 21 20 19 18 17 17 16 16 13 12 13 13 12 12 12 11 11 10 9 7 5 4 4 3 2 2 3 3 1 1 2 2 2 3 4 4 5 6 8 8 6 5 7 11 12 12 12 12 11 13 14 15 16 16 16 19 23 24 24 24 24 25 25 25 24 25 25 24 21 18 17 17 16 16 16 17
17 18 18 18 20 20 19 18 18 19 19 18 16 14 13 13 12 10 8 9 9 8 9 9 9 8 7 7 6 4 2 0 1 1 2 3 2 1 2 3 3 3 4 4 4 5 6 8 10 10 9 11 13 13 13 14 13 12 13 15 16 17 17 16 16 19 22 23 23 25 26 26 26 26 27 26 25 23 21 21 18 17 18 18 16
19 19 19 19 20 19 17 16 15 14 15 14 12 11 11 10 9 8 7 7 7 7 7 7 7 6 5 4 4 3 2 2 4 4 4 5 4 2 2 3 3 3 4 5 5 6 6 6 8 11 12 13 14 14 14 15 16 15 14 15 17 16 16 17 17 17 17 17 18 20 21 22 23 24 25 25 24 23 22 22 19 17 19 18 16
17 18 18 18 19 19 18 17 15 13 12 11 10 10 10 9 8 7 7 6 7 6 5 5 5 5 4 3 2 1 1 2 5 6 6 6 6 3 2 3 5 5 6 7 7 7 6 5 5 9 13 14 15 15 15 16 17 18 18 18 19 18 17 17 18 18 18 16 16 17 16 16 18 18 19 21 22 22 22 22 20 17 17 16 17
12 12 13 14 15 16 16 16 15 14 13 11 10 9 9 9 8 7 6 6 6 6 4 4 3 3 3 3 2 1 1 2 4 6 6 7 7 5 3 6 8 7 7 8 7 7 7 6 7 12 15 16 16 17 18 18 18 20 21 22 22 22 21 19 17 17 18 18 18 18 17 16 16 15 15 15 17 19 21 21 20 19 16 15 15
11 10 10 11 11 11 12 13 12 11 11 10 9 8 7 7 7 7 6 5 4 4 4 3 3 3 2 2 2 1 1 3 4 6 5 5 6 5 5 8 9 7 7 8 8 9 8 7 10 16 17 17 18 18 18 19 20 21 22 22 22 22 22 22 20 19 20 20 19 19 19 18 16 15 15 16 16 19 19 17 17 17 18 19 18
11 11 10 10 10 9 10 10 9 9 8 7 7 7 6 5 5 5 4 4 4 4 3 3 3 2 2 1 1 1 1 1 3 6 8 6 4 4 5 6 6 6 7 9 9 9 9 10 14 17 17 17 18 18 19 20 21 22 22 22 23 21 20 21 22 21 20 20 20 21 21 21 19 16 16 16 17 18 17 14 13 13 15 19 20
9 9 9 9 9 9 9 9 8 8 7 6 6 6 5 5 4 4 4 3 3 3 3 3 3 2 1 1 1 1 2 1 2 5 10 10 9 9 10 8 7 7 6 7 8 10 12 15 18 18 17 17 17 17 17 17 18 21 23 23 24 23 21 21 21 19 18 19 21 23 23 23 22 18 15 15 16 16 17 16 15 16 16 17 16
8 8 8 8 8 8 7 7 8 8 7 7 7 7 6 6 5 5 4 4 4 4 4 3 3 2 2 3 3 3 3 3 2 3 7 9 10 12 12 11 11 11 9 7 8 10 13 16 18 17 16 16 16 16 16 15 17 18 19 19 20 20 20 19 18 18 18 19 21 23 22 20 17 15 16 18 17 16 17 17 16 16 16 17 16
7 7 7 7 7 8 7 7 7 7 7 7 7 7 7 7 6 6 6 5 5 4 4 3 3 3 3 4 4 4 3 3 4 5 7 8 9 10 10 9 10 10 9 7 9 11 13 16 16 15 14 14 14 15 15 15 15 14 12 12 13 14 16 16 16 17 17 17 19 21 21 18 16 18 20 20 16 14 16 19 19 18 18 18 18
7 6 6 6 6 6 7 7 6 6 7 7 8 8 8 6 6 6 6 5 5 4 4 4 4 5 5 5 5 5 4 4 5 8 10 11 11 10 9 8 9 8 8 9 11 12 13 14 13 12 11 11 11 12 12 12 11 11 11 12 13 13 14 14 14 15 16 16 16 18 20 20 20 21 21 18 14 14 15 17 19 20 19 18 15
6 6 5 6 6 5 5 6 6 5 6 7 8 10 10 8 5 4 5 5 3 3 4 4 5 6 6 7 7 7 6 7 8 11 13 12 12 12 11 10 10 10 11 12 13 12 11 10 10 9 9 9 9 10 11 11 11 11 12 12 13 13 12 12 12 12 13 14 14 13 14 14 15 17 18 14 13 17 19 18 19 21 19 14 12
5 6 6 6 6 5 5 6 6 6 5 5 5 7 10 12 9 5 3 4 3 3 3 3 5 6 5 5 7 8 9 11 13 14 14 13 13 13 12 12 12 12 12 13 13 10 9 9 8 8 8 9 10 10 11 11 11 11 12 11 11 11 10 10 11 10 11 12 12 10 10 11 12 15 16 13 13 16 19 18 19 19 16 12 10
5 6 7 7 6 6 6 6 6 5 5 5 4 3 5 9 12 11 8 6 5 5 5 5 5 6 5 5 6 8 11 13 15 15 14 14 13 12 12 11 11 12 13 13 10 8 8 8 8 8 9 10 10 10 10 10 10 10 11 11 11 10 9 9 10 9 9 10 10 8 9 10 11 12 14 16 17 17 16 15 15 15 12 10 9
5 5 6 6 6 5 5 5 4 4 4 4 4 3 2 4 7 9 10 10 10 9 8 7 6 6 6 7 8 9 11 13 14 13 13 13 13 12 12 11 10 11 11 10 8 7 8 9 9 9 10 10 10 10 9 10 10 9 10 10 11 11 10 9 8 7 7 7 7 8 9 9 10 11 14 18 19 17 15 13 13 12 10 8 8
5 5 4 4 4 4 4 4 3 3 3 3 3 3 3 2 2 3 3 4 6 8 9 10 9 7 6 7 9 9 10 11 11 11 12 14 14 13 11 9 9 10 10 8 6 7 8 9 10 10 10 10 11 11 11 11 11 11 11 11 12 12 11 10 10 8 7 7 7 8 9 8 11 14 15 18 20 19 17 16 14 12 9 8 8
4 4 3 3 2 3 3 3 2 2 2 2 2 2 3 3 3 2 1 1 1 1 2 6 9 9 8 7 8 8 8 8 8 9 11 13 13 12 11 8 7 9 9 7 6 7 8 9 10 10 10 11 11 11 12 12 13 13 13 13 13 13 11 10 10 9 8 8 8 8 9 10 13 16 17 19 20 19 18 17 14 10 8 8 8
3 4 3 2 2 1 1 2 2 1 1 1 1 2 3 3 3 3 3 3 3 1 1 2 4 8 9 9 8 6 6 5 6 8 9 10 11 11 10 8 6 7 8 7 7 8 8 9 9 10 10 11 11 11 12 13 13 13 14 13 13 12 11 10 9 8 7 7 7 8 11 13 15 18 20 21 20 18 17 14 12 9 8 8 7
2 2 2 1 1 1 1 1 1 1 1 1 1 1 2 3 3 3 4 4 5 4 2 2 3 6 9 11 10 8 6 6 7 8 10 11 12 12 11 9 8 8 8 7 7 8 8 9 9 10 10 10 11 11 11 12 12 12 13 13 12 10 9 9 8 7 6 5 7 9 12 15 18 22 23 22 20 18 16 13 11 10 8 7 6
3 3 3 2 2 2 1 1 1 1 0 1 2 2 2 3 3 4 5 6 6 5 4 4 5 6 8 10 12 11 11 10 9 10 11 12 12 12 11 10 10 9 9 8 8 8 9 9 10 10 10 10 11 11 11 11 11 11 11 11 9 7 7 7 6 5 4 5 8 12 15 18 21 22 22 19 17 15 14 13 11 10 9 8 6
2 4 4 3 2 3 2 1 2 2 2 3 3 2 3 3 3 4 6 6 6 5 5 6 7 8 9 11 12 12 12 11 9 9 10 11 11 11 11 11 11 10 10 10 9 9 9 10 10 10 11 11 11 11 11 10 10 9 9 8 7 6 5 4 2 2 4 7 10 13 16 17 17 16 16 15 14 13 13 12 11 10 9 7 5
1 3 4 3 1 2 3 2 2 3 3 3 3 3 3 3 3 4 6 6 6 6 6 7 7 8 10 13 13 11 10 10 10 10 10 10 10 11 11 11 11 11 11 11 10 10 10 10 10 10 11 11 11 11 10 10 9 7 6 7 7 7 7 6 6 6 8 9 11 14 16 17 16 15 14 15 15 14 13 11 9 8 7 5 4
1 2 5 5 3 1 2 2 2 3 3 3 3 3 3 3 3 5 6 7 7 6 6 7 7 8 11 14 13 10 9 9 10 10 10 10 11 11 11 11 11 11 11 11 11 11 11 10 10 11 11 11 11 11 10 9 8 7 7 9 11 11 11 11 11 12 13 13 15 15 16 16 15 14 14 13 12 12 11 9 7 6 5 5 4
3 3 4 5 5 3 2 3 3 3 3 3 3 3 3 3 4 4 6 6 6 5 6 6 6 7 11 13 10 8 8 9 9 9 9 10 10 10 10 10 11 11 10 10 10 10 10 10 10 10 11 11 11 10 9 8 8 9 10 12 14 15 15 14 14 14 14 14 14 14 13 13 12 11 11 10 9 8 8 7 6 6 5 5 4
3 4 4 5 4 4 3 3 3 3 3 2 2 2 2 2 3 4 4 5 5 4 5 6 6 6 10 13 13 11 8 8 8 8 9 9 9 9 9 10 10 10 9 9 8 9 9 9 9 9 9 9 9 9 8 8 9 10 11 12 13 14 14 14 14 13 13 12 11 10 10 10 9 9 9 8 7 7 7 6 6 5 5 4 3
2 3 4 4 3 2 3 3 3 2 2 1 1 1 1 1 2 2 3 3 4 4 4 5 6 6 9 13 14 11 8 8 8 8 8 9 9 9 9 9 9 9 8 7 7 8 7 7 7 8 9 9 8 8 7 8 10 11 11 11 11 12 12 13 14 13 13 12 10 9 9 9 8 8 7 7 6 6 7 6 6 5 4 4 3
3 2 3 3 2 2 2 3 2 2 1 1 1 0 0 0 1 2 2 3 3 4 5 5 6 6 8 10 11 10 10 10 10 9 9 9 9 9 8 9 9 8 7 6 7 8 8 7 7 9 10 10 9 8 7 8 10 11 11 11 12 12 13 13 13 12 12 11 10 9 8 8 8 7 6 6 6 7 6 6 5 4 4 4 3
4 3 3 3 2 1 2 2 2 2 1 1 1 1 1 2 2 2 3 3 4 4 4 5 6 7 8 9 10 11 11 11 11 11 10 10 10 9 9 8 8 8 7 7 8 9 10 9 8 8 8 8 8 8 8 8 9 9 9 10 11 11 11 11 10 10 9 8 7 7 7 6 6 6 6 6 6 6 5 5 5 4 4 3 3
4 3 2 2 1 1 2 2 2 1 1 1 2 2 3 4 4 3 3 4 4 4 4 5 6 7 8 9 10 10 11 11 11 11 11 11 10 10 9 9 10 10 9 9 9 11 11 11 11 11 11 9 9 9 8 8 8 8 8 10 11 10 10 10 9 8 8 7 6 5 5 5 5 5 5 5 5 5 5 5 4 4 4 3 3
4 3 2 2 0 1 2 2 2 2 2 2 3 4 4 4 4 4 4 4 5 5 5 5 6 6 7 7 8 8 9 9 10 10 10 10 10 10 10 12 12 12 11 11 12 13 13 13 13 13 12 11 10 10 8 7 7 6 6 7 8 9 9 10 9 7 7 6 5 4 4 4 4 4 4 5 4 4 5 5 5 4 4 3 4
5 4 2 1 0 1 2 2 2 2 3 4 4 4 4 4 4 4 4 4 4 5 5 5 5 5 6 6 6 6 6 6 7 8 9 9 10 10 11 12 13 13 13 13 14 14 14 14 13 12 11 10 9 8 7 6 5 4 4 5 5 6 7 7 6 5 5 5 4 4 3 3 4 4 4 4 4 5 4 4 4 4 3 3 2
6 5 3 2 1 0 1 2 2 2 3 4 4 4 4 3 4 4 4 4 4 4 4 4 5 5 5 5 5 5 5 6 6 7 8 9 10 11 12 12 12 13 13 13 13 13 13 12 11 10 10 9 9 8 7 6 5 5 4 4 4 4 4 4 4 5 6 5 4 4 4 4 4 4 4 4 4 4 4 4 4 5 4 3 2
7 6 5 3 2 1 2 2 2 2 3 3 4 4 3 3 3 3 3 3 3 3 3 4 4 5 5 5 5 5 5 5 6 6 6 7 9 10 11 11 11 11 11 11 11 11 11 11 10 10 9 9 8 8 7 6 6 5 5 4 4 3 4 4 5 7 7 6 4 4 5 5 4 5 5 5 4 5 5 5 5 5 4 4 3
8 7 6 5 3 2 2 3 3 2 2 2 3 3 3 3 3 3 2 3 3 3 3 3 3 3 4 4 4 4 5 4 5 6 5 5 6 8 9 10 10 10 10 9 9 9 9 9 9 10 9 9 8 8 8 7 7 7 6 5 5 4 4 5 5 7 7 7 6 5 5 5 4 4 4 4 4 4 5 5 4 3 3 4 3
Wind_Direction
167 170 171 174 179 186 189 182 175 174 172 173 173 170 170 171 168 165 161 158 157 157 158 156 155 157 159 162 163 161 157 155 154 151 150 145 141 145 153 164 168 161 158 157 156 162 170 177 184 186 188 189 181 179 175 172 180 178 174 181 164 163 192 171 149 147 149 158 162 163 169 171 177 181 177 177 183 183 181 187 197 199 199 212 231
167 169 170 177 186 189 190 184 177 176 175 174 172 170 172 172 170 166 161 158 158 159 157 156 156 158 160 162 162 159 155 152 154 152 146 141 139 140 147 156 154 147 152 154 151 157 164 171 177 177 182 183 172 173 176 175 181 177 172 177 160 159 182 165 148 153 155 162 169 166 171 181 186 186 188 186 186 192 196 195 198 203 208 214 221
166 168 171 180 189 190 188 185 180 177 177 175 172 171 172 171 170 167 161 158 158 159 157 156 157 158 160 162 159 157 154 149 152 152 148 149 148 145 144 144 141 140 145 144 145 156 161 163 168 171 175 174 167 173 181 182 181 175 172 174 160 158 173 164 152 158 162 168 176 175 176 187 196 193 194 194 192 198 204 204 207 210 216 219 217
161 168 176 181 184 185 179 174 170 168 170 175 174 172 171 170 170 166 160 158 157 156 156 157 157 156 160 162 159 157 154 154 157 152 149 151 149 147 145 140 137 137 134 131 132 147 160 163 165 169 173 171 170 178 185 183 180 175 175 178 171 165 168 172 170 166 165 172 183 187 181 188 202 201 196 198 199 203 210 213 215 216 219 222 219
161 170 179 177 174 171 161 155 159 163 166 170 172 171 168 166 167 163 158 157 154 153 154 157 157 156 159 161 160 159 156 158 163 159 154 150 147 148 147 142 140 135 128 121 114 122 149 161 162 166 170 170 173 180 181 180 180 177 179 182 180 175 175 185 191 185 180 179 183 192 188 189 201 204 200 201 201 206 214 218 220 220 222 220 216
167 172 176 173 166 159 155 159 165 167 169 168 168 169 165 160 160 157 154 152 149 149 151 152 154 156 159 161 160 158 156 155 159 163 163 158 154 152 148 146 144 139 135 129 115 107 126 150 159 164 168 171 176 180 178 180 185 183 185 189 184 178 184 196 202 203 207 201 191 194 197 198 203 205 207 207 207 210 214 218 222 222 220 213 212
167 169 168 167 161 152 153 160 161 164 171 172 166 164 159 154 152 150 149 146 144 144 143 143 146 147 150 155 154 152 152 151 151 159 166 165 164 161 159 161 156 150 147 140 128 111 110 134 155 165 170 172 176 180 179 182 189 189 189 194 191 186 191 203 209 210 216 221 211 203 204 207 207 209 211 211 213 217 217 217 221 219 215 213 212
161 162 158 151 150 155 161 162 159 162 169 166 156 151 149 149 148 145 144 142 140 140 139 138 137 136 137 141 143 144 148 148 144 149 160 163 163 163 167 176 175 168 165 155 143 128 114 120 140 158 169 174 178 185 187 186 191 195 194 197 202 205 209 213 216 217 219 223 222 216 214 212 208 210 214 211 214 222 221 220 223 221 215 215 217
150 153 150 140 144 154 156 153 153 154 151 142 136 136 137 140 141 142 143 142 140 139 140 141 140 137 137 134 132 132 137 147 150 148 147 153 160 162 165 180 186 183 180 174 162 151 135 122 123 138 151 161 172 182 188 189 193 199 202 206 212 217 222 221 220 223 224 223 224 225 223 219 213 213 213 210 216 225 224 223 228 228 221 218 221
139 141 140 136 141 147 144 139 140 140 137 130 126 128 132 133 133 134 136 136 136 137 140 146 147 146 141 134 141 160 169 170 170 165 157 152 157 161 159 170 183 184 183 179 172 167 155 135 125 121 124 134 149 162 175 186 194 201 207 211 212 213 217 218 217 221 223 222 223 224 227 228 224 220 219 218 222 228 229 227 229 231 226 221 223
124 126 127 123 120 123 127 130 132 133 133 132 132 133 136 138 136 135 135 134 133 130 131 138 137 132 128 131 154 176 181 182 184 182 180 171 157 161 163 161 168 176 177 176 175 176 171 157 144 128 120 127 132 149 179 197 212 224 228 226 224 219 218 220 220 220 222 226 225 222 226 232 231 229 229 229 228 227 231 232 232 234 231 224 226
103 105 108 109 106 106 112 120 127 130 131 134 137 138 141 142 145 152 160 163 155 136 124 123 121 120 123 128 136 141 144 157 170 179 187 183 167 161 165 164 165 169 172 173 172 171 171 174 173 165 174 186 191 215 230 232 234 239 244 245 243 237 234 234 234 234 237 241 240 236 235 239 242 238 235 238 237 232 232 236 239 242 240 236 240
100 98 99 104 109 114 118 118 120 124 128 131 136 143 148 146 146 154 159 159 152 136 123 116 113 118 127 127 122 119 119 121 129 142 159 171 169 160 158 176 178 176 179 181 177 171 178 190 195 207 226 231 235 238 240 245 251 251 250 252 252 249 246 242 240 243 248 250 252 250 246 247 251 250 246 244 243 239 239 241 243 244 245 249 255
95 96 96 99 104 112 117 114 110 112 120 127 131 135 137 131 126 128 130 130 127 118 114 113 108 110 119 121 119 117 116 112 113 118 118 130 150 148 143 167 175 175 183 193 207 210 213 223 227 231 242 248 246 241 242 248 254 254 254 254 253 253 254 252 250 249 249 251 254 256 256 255 255 257 258 248 242 247 250 248 247 247 250 255 256
88 88 89 92 95 99 107 112 111 109 116 126 128 127 128 124 119 116 120 124 121 114 112 114 110 105 107 115 118 115 112 113 118 122 120 125 136 129 125 162 178 188 188 192 210 214 218 233 241 242 245 246 242 244 250 252 249 249 251 250 248 249 251 252 254 256 255 255 256 256 256 257 254 255 256 248 245 252 254 252 252 253 251 248 241
81 80 81 87 93 96 100 106 108 108 114 121 124 125 125 120 116 118 121 122 121 118 114 110 105 99 98 103 110 112 113 115 120 123 128 137 131 112 115 193 200 222 216 217 229 225 224 232 238 245 251 251 250 252 255 253 251 253 254 253 253 252 250 250 255 261 260 256 255 254 253 253 252 253 255 252 248 248 251 253 249 244 240 238 233
77 79 77 81 90 95 99 102 103 104 107 109 112 119 123 119 116 118 120 118 118 118 115 110 107 108 107 101 99 107 115 118 122 129 132 140 130 107 207 223 220 240 247 259 261 252 251 253 254 263 267 256 252 257 261 258 253 253 255 255 254 253 251 252 257 262 260 255 254 254 254 255 256 257 258 258 254 250 247 248 245 238 235 238 239
75 79 78 80 87 91 96 100 103 104 103 101 102 110 117 119 119 116 113 113 116 116 116 115 115 117 121 118 109 105 111 119 129 140 158 173 159 118 302 253 236 243 248 256 260 261 268 270 266 267 266 256 255 262 267 264 258 254 255 256 255 254 253 250 251 256 258 255 252 250 251 253 254 254 254 254 255 252 245 244 246 241 236 241 247
77 79 81 87 93 93 92 94 97 101 103 101 99 101 105 109 111 107 99 102 107 109 111 112 109 109 115 121 116 103 85 33 240 232 261 251 212 188 314 283 255 255 259 258 257 254 262 270 265 257 251 252 258 264 264 259 254 254 256 257 255 254 255 252 247 249 254 255 252 250 250 250 250 251 251 251 252 250 243 243 247 243 242 249 251
84 84 85 89 94 95 93 90 88 89 94 94 94 97 99 96 93 89 86 89 93 95 99 102 104 104 101 104 113 110 84 328 300 285 284 284 267 270 347 326 297 301 293 276 266 258 252 254 258 256 252 251 257 262 261 255 249 247 250 255 256 255 258 257 249 242 243 248 247 245 245 246 246 248 249 248 248 245 238 237 239 240 246 251 248
81 81 81 83 87 91 93 93 90 86 86 86 85 86 90 91 87 80 78 82 84 86 93 102 106 108 104 96 94 121 145 308 303 295 293 296 285 282 341 316 290 302 303 286 277 271 258 241 248 259 259 260 265 268 266 262 254 246 243 245 248 252 257 258 252 246 242 241 240 236 231 231 235 236 239 243 245 243 238 235 235 236 241 248 250
74 71 74 76 77 79 81 83 84 83 81 80 77 73 76 81 83 81 79 81 82 81 86 98 105 114 120 114 96 32 323 330 329 315 307 307 298 286 278 276 276 288 298 289 279 273 269 266 265 265 265 268 273 273 272 272 267 260 255 252 249 250 253 254 255 255 250 243 240 237 229 224 224 223 222 226 233 236 235 234 233 232 231 237 244
74 70 72 72 70 70 68 66 67 67 66 66 64 61 64 68 69 72 76 80 83 79 76 84 100 110 114 120 111 78 342 333 350 355 347 327 313 304 290 281 281 283 284 282 280 279 281 279 269 268 272 277 277 274 273 273 273 273 273 271 266 261 257 256 257 258 256 250 245 242 241 235 227 217 211 211 220 229 229 228 229 229 226 226 225
70 66 64 65 65 64 62 60 60 59 58 60 60 60 63 68 69 75 80 86 96 95 86 80 80 85 92 102 97 64 29 309 324 348 360 1 350 339 328 311 300 289 278 276 279 280 277 270 268 272 279 282 279 276 273 272 272 273 274 275 274 269 262 258 258 257 256 252 247 242 240 236 231 229 224 215 216 223 221 215 213 214 217 221 221
60 59 57 57 57 59 61 60 59 57 55 58 59 58 60 67 72 77 81 85 89 84 78 79 71 51 42 36 8 357 21 19 315 338 356 4 1 352 350 346 337 330 314 287 278 278 276 274 276 280 285 287 286 284 279 272 267 267 267 269 270 267 261 258 258 253 247 245 245 243 242 243 243 240 228 209 204 212 215 210 206 206 208 211 208
59 58 56 55 52 54 57 54 50 48 45 48 51 48 47 50 52 53 54 57 59 57 51 48 45 39 24 11 7 4 6 15 23 6 3 3 352 343 344 343 339 342 342 321 305 306 302 295 292 292 295 298 297 294 289 282 276 275 275 273 269 263 257 254 253 248 241 239 241 243 247 252 246 227 215 213 213 217 217 208 199 196 197 192 183
58 57 57 59 59 57 55 51 48 45 42 44 46 42 41 41 40 40 37 32 31 38 40 33 24 23 16 4 3 6 2 18 37 21 2 354 343 335 334 330 328 334 336 325 321 320 310 304 305 305 303 303 301 298 294 289 285 285 287 281 271 262 256 252 249 247 243 241 242 243 245 245 237 226 228 229 222 212 208 201 190 180 178 176 168
56 59 60 63 65 63 58 56 55 55 53 52 49 43 36 30 33 38 32 23 20 19 19 25 23 12 4 360 357 354 2 24 23 0 347 341 334 330 327 323 322 322 314 308 312 310 299 298 304 303 295 292 295 296 291 283 279 282 284 281 276 272 269 263 255 249 247 244 244 243 239 234 232 231 231 224 207 198 198 194 185 176 171 166 157
59 61 64 65 65 63 59 56 55 58 64 66 62 52 39 28 32 38 15 2 12 18 10 13 12 4 360 358 354 351 354 356 344 336 334 331 326 324 320 315 315 313 305 305 311 309 296 290 292 290 286 286 290 294 291 286 283 284 284 284 282 279 276 271 261 255 250 244 239 236 231 225 223 222 216 205 196 196 194 186 180 175 168 159 150
61 61 60 57 53 53 56 55 53 55 59 64 72 63 41 30 35 42 1 337 351 17 19 13 7 5 1 351 345 339 330 326 325 327 329 326 322 320 316 313 316 316 313 317 320 310 292 289 292 294 298 299 296 295 295 294 292 287 283 283 281 277 275 272 268 264 254 241 234 230 224 216 211 209 203 190 182 186 185 181 177 170 160 150 147
55 58 56 51 44 43 47 46 45 49 51 45 47 64 52 40 41 45 45 44 48 44 38 33 20 10 358 337 330 324 316 317 323 327 327 325 325 325 324 325 327 322 319 324 323 303 290 299 307 308 310 309 302 296 292 290 289 287 284 283 280 276 275 275 273 269 256 243 236 230 223 217 209 201 194 187 182 176 170 168 166 160 154 150 148
55 57 57 54 48 45 48 48 47 50 57 52 39 35 54 62 56 54 52 52 53 50 42 33 21 6 351 336 328 324 322 325 333 341 345 349 348 342 338 339 339 335 334 335 327 307 305 313 314 311 310 307 301 296 290 284 281 278 277 277 277 276 276 276 273 266 257 248 239 229 224 217 203 195 190 186 177 163 150 149 150 147 148 149 142
54 53 60 65 61 56 52 52 54 51 51 60 57 40 32 34 58 84 80 54 41 37 32 27 22 12 356 342 335 336 339 343 352 2 6 8 7 4 4 6 3 0 2 353 324 312 315 314 310 310 309 305 302 300 295 290 286 282 278 274 274 275 275 273 271 266 255 251 245 235 225 210 194 189 182 172 163 151 141 139 136 130 130 131 128
52 53 53 43 49 67 61 50 58 68 56 56 64 56 47 38 34 48 85 100 45 36 29 25 21 15 7 359 351 351 354 360 9 13 10 11 17 20 19 15 6 2 3 350 321 316 318 314 310 311 309 307 306 304 300 296 294 291 286 281 279 279 278 273 271 268 257 250 244 228 211 200 191 182 169 156 149 142 135 132 130 126 127 131 131
74 94 96 49 30 68 85 58 52 56 52 52 47 34 36 38 33 31 31 22 7 347 152 83 18 10 18 22 12 359 359 8 17 20 19 25 33 28 17 9 2 354 350 339 326 321 318 314 314 313 312 311 310 308 305 304 302 298 294 290 286 285 283 278 272 270 263 251 236 218 205 194 182 171 160 150 143 135 129 127 129 131 134 135 132
54 90 100 62 21 21 26 37 35 36 40 28 12 8 13 16 17 17 20 18 5 356 24 53 2 356 12 18 15 20 38 46 40 34 34 40 43 35 23 19 17 9 359 351 342 333 326 324 322 321 321 323 322 320 318 315 311 308 308 308 304 296 289 284 277 272 264 243 216 200 190 177 166 158 151 144 139 134 130 128 131 132 131 127 126
27 31 20 360 344 330 307 288 343 31 59 312 317 330 339 352 4 3 3 11 8 355 4 22 13 6 10 7 6 17 32 37 36 32 29 32 35 32 26 24 20 15 11 5 356 347 342 340 338 335 336 337 334 333 332 327 323 323 326 328 327 317 302 290 277 258 233 193 174 168 165 159 154 150 143 136 133 134 134 133 132 129 127 128 132
34 20 1 346 332 320 305 272 277 285 274 283 306 327 326 329 346 351 354 5 8 359 5 17 15 14 11 1 358 6 15 20 25 26 21 21 24 24 24 23 19 15 12 6 0 356 353 351 350 348 347 347 347 346 345 342 339 341 346 350 351 350 342 329 291 198 158 144 143 145 145 143 141 139 134 129 128 131 131 129 127 125 127 136 144
53 12 7 19 17 326 331 328 284 275 282 289 292 298 306 311 324 337 348 1 6 6 12 15 14 15 9 359 356 4 12 16 20 20 18 20 22 20 21 20 17 14 13 10 8 7 3 0 1 1 359 360 2 1 360 359 358 4 21 37 47 51 54 60 75 91 102 111 121 128 131 130 127 124 122 122 123 125 124 122 122 124 129 135 138
355 5 12 24 35 357 344 344 314 291 289 288 281 283 298 308 314 328 345 356 3 10 14 12 16 18 4 355 360 12 14 12 16 18 17 19 20 19 20 21 18 16 16 14 12 11 10 10 11 12 13 16 17 19 21 22 24 42 71 85 89 89 88 91 94 95 96 100 107 113 117 118 117 115 112 112 118 123 123 119 116 116 122 128 139
339 346 356 3 6 1 346 341 334 316 297 291 287 286 296 309 320 335 349 354 359 13 16 12 19 12 353 355 19 40 22 6 14 19 17 19 20 19 19 20 18 17 15 12 10 10 12 15 19 23 27 29 30 32 37 41 47 61 75 84 89 92 93 93 93 93 94 95 96 96 99 104 107 105 103 104 109 114 115 114 115 119 125 135 146
328 340 343 349 354 354 342 341 343 325 295 286 288 288 292 305 321 341 358 1 5 22 21 14 20 12 359 11 39 52 30 12 19 20 16 19 20 18 18 19 18 15 12 9 8 9 12 17 23 29 34 37 38 40 44 50 57 63 67 71 77 81 84 84 84 85 88 90 90 89 90 93 95 98 104 108 108 109 111 115 121 125 130 136 144
296 326 340 348 355 3 354 347 347 332 299 270 243 266 289 312 331 351 14 22 27 38 34 24 27 27 18 25 38 44 34 26 25 21 19 21 19 16 17 19 17 14 14 17 19 20 22 27 38 49 58 61 57 52 48 53 61 67 69 69 70 73 78 81 85 88 89 92 97 100 98 92 88 93 101 104 104 108 114 117 121 125 128 131 138
249 292 330 343 353 25 23 7 13 37 76 141 146 162 225 159 66 43 53 60 54 53 49 43 44 46 41 37 40 42 42 39 33 27 25 23 21 20 22 19 16 17 25 34 40 46 50 49 49 57 68 73 71 66 62 63 68 71 73 74 74 76 78 81 83 85 88 91 96 98 96 90 88 90 92 94 100 108 112 112 116 121 122 124 131
237 277 324 337 337 42 56 41 52 78 98 130 140 135 137 131 116 95 80 74 69 66 64 60 57 57 54 50 47 46 47 45 39 34 31 29 27 27 24 20 22 32 47 57 62 68 73 71 67 67 69 68 67 69 70 72 75 77 79 81 81 79 80 84 89 94 97 96 91 91 94 94 94 96 98 101 106 109 107 109 115 114 107 103 109
231 260 314 335 341 80 77 67 70 73 65 83 129 141 138 129 120 103 85 78 79 79 75 70 68 64 59 52 47 45 46 45 40 37 35 35 34 34 36 40 46 52 60 67 71 76 80 81 81 81 79 75 75 77 74 70 73 79 86 94 94 90 89 93 98 105 113 110 98 96 103 103 100 106 112 111 106 100 97 103 114 116 106 92 86
224 238 291 326 352 131 111 92 82 73 73 93 117 129 128 126 120 104 90 88 90 86 79 76 73 66 56 47 43 43 45 43 39 37 37 38 39 44 54 62 65 65 67 70 74 78 81 81 80 81 79 78 81 83 76 63 57 63 79 94 98 96 97 100 101 107 117 117 109 113 122 114 109 116 120 111 99 95 97 103 108 110 108 98 83
219 224 255 295 295 156 139 124 106 87 86 100 118 127 124 119 115 106 98 95 92 86 81 80 75 64 54 48 47 51 54 51 47 46 48 53 58 62 67 73 78 78 77 77 77 78 79 77 77 77 76 73 72 72 69 63 63 73 93 105 103 100 104 108 110 112 113 111 112 121 126 114 109 114 117 110 102 101 104 102 98 97 102 109 96
218 222 232 237 243 150 144 144 131 109 104 111 122 129 126 118 113 106 100 97 95 90 87 84 78 72 70 69 69 72 74 69 64 60 60 65 70 72 74 77 79 79 76 75 75 75 76 75 73 71 70 68 65 61 59 63 74 88 99 102 99 97 103 112 117 114 106 104 113 123 120 107 104 108 113 112 103 97 96 96 93 90 86 85 89
215 218 220 217 216 184 163 166 158 131 125 129 129 126 127 129 126 118 111 113 113 107 99 93 87 83 83 83 81 80 80 78 73 69 66 65 69 73 75 75 75 74 72 70 69 70 73 75 75 73 70 69 69 68 63 63 69 75 80 84 85 88 98 110 118 117 109 103 108 117 116 114 111 109 110 112 104 90 89 96 102 99 88 78 78
211 213 212 211 212 203 187 189 186 169 154 150 141 134 137 143 143 142 145 143 133 121 111 105 101 95 94 91 85 83 84 83 79 76 73 69 69 71 73 71 69 68 66 65 65 68 70 73 77 78 75 74 79 82 80 77 74 71 69 69 72 76 88 105 120 125 118 108 104 105 110 115 114 105 103 105 99 88 91 97 99 91 81 79 81